| time (UTC) | temp F | wind direction | speed MPH | gust MPH | rain 1hr in | rain 24hr in | rain mn in | humidity % | barometer mb |
| 20260505011315 | 71 | 180 | 3.0 | 6.0 | 0.00 | 0.00 | 0.00 | 61 | 1013.0 |
| 20260505010815 | 71 | 188 | 3.0 | 6.0 | 0.00 | 0.00 | 0.00 | 61 | 1012.9 |
| 20260505010314 | 71 | 149 | 4.0 | 6.0 | 0.00 | 0.00 | 0.00 | 60 | 1012.9 |
| 20260505005815 | 71 | 153 | 4.0 | 7.0 | 0.00 | 0.00 | 0.00 | 60 | 1013.0 |
| 20260505005312 | 71 | 155 | 4.0 | 7.0 | 0.00 | 0.00 | 0.00 | 59 | 1013.1 |
| 20260505005255 | 71 | 179 | 4.0 | 7.0 | 0.00 | 0.00 | 0.00 | 59 | 1013.3 |
| 20260505004309 | 71 | 176 | 4.0 | 8.0 | 0.00 | 0.00 | 0.00 | 58 | 1013.3 |
| 20260505003809 | 72 | 151 | 4.0 | 9.0 | 0.00 | 0.00 | 0.00 | 58 | 1013.2 |
| 20260505003309 | 72 | 190 | 5.0 | 9.0 | 0.00 | 0.00 | 0.00 | 57 | 1013.2 |
| 20260505002809 | 72 | 167 | 5.0 | 9.0 | 0.00 | 0.00 | 0.00 | 56 | 1013.3 |
| 20260505002309 | 72 | 148 | 5.0 | 9.0 | 0.00 | 0.00 | 0.00 | 55 | 1013.3 |
| 20260505001809 | 73 | 203 | 4.0 | 9.0 | 0.00 | 0.00 | 0.00 | 55 | 1013.3 |
| 20260505001528 | 73 | 176 | 5.0 | 10.0 | 0.00 | 0.00 | 0.00 | 55 | 1013.4 |
| 20260505000809 | 73 | 173 | 5.0 | 10.0 | 0.00 | 0.00 | 0.00 | 55 | 1013.3 |
| 20260505000309 | 73 | 199 | 5.0 | 9.0 | 0.00 | 0.00 | 0.00 | 55 | 1013.3 |
| 20260504235810 | 73 | 184 | 6.0 | 12.0 | 0.00 | 0.00 | 0.00 | 55 | 1013.3 |
| 20260504235532 | 73 | 172 | 6.0 | 12.0 | 0.00 | 0.00 | 0.00 | 54 | 1013.3 |
| 20260504234810 | 73 | 186 | 7.0 | 11.0 | 0.00 | 0.00 | 0.00 | 53 | 1013.3 |
| 20260504234527 | 73 | 161 | 7.0 | 12.0 | 0.00 | 0.00 | 0.00 | 53 | 1013.5 |
| 20260504233807 | 73 | 208 | 6.0 | 12.0 | 0.00 | 0.00 | 0.00 | 52 | 1013.5 |
| 20260504233306 | 73 | 144 | 6.0 | 12.0 | 0.00 | 0.00 | 0.00 | 52 | 1013.6 |
| 20260504232807 | 73 | 187 | 6.0 | 12.0 | 0.00 | 0.00 | 0.00 | 51 | 1013.6 |
| 20260504232307 | 73 | 183 | 6.0 | 12.0 | 0.00 | 0.00 | 0.00 | 50 | 1013.6 |
| 20260504231807 | 74 | 180 | 6.0 | 11.0 | 0.00 | 0.00 | 0.00 | 49 | 1013.6 |
| 20260504231307 | 74 | 187 | 7.0 | 13.0 | 0.00 | 0.00 | 0.00 | 49 | 1013.7 |
| 20260504231029 | 74 | 185 | 6.0 | 13.0 | 0.00 | 0.00 | 0.00 | 50 | 1013.8 |
| 20260504230751 | 74 | 170 | 6.0 | 12.0 | 0.00 | 0.00 | 0.00 | 49 | 1013.8 |
| 20260504225808 | 74 | 142 | 6.0 | 11.0 | 0.00 | 0.00 | 0.00 | 49 | 1013.8 |
| 20260504225308 | 74 | 185 | 6.0 | 11.0 | 0.00 | 0.00 | 0.00 | 49 | 1013.8 |
| 20260504224807 | 74 | 204 | 6.0 | 11.0 | 0.00 | 0.00 | 0.00 | 49 | 1013.8 |
| 20260504224307 | 74 | 167 | 6.0 | 11.0 | 0.00 | 0.00 | 0.00 | 48 | 1013.8 |
| 20260504224029 | 74 | 148 | 6.0 | 13.0 | 0.00 | 0.00 | 0.00 | 48 | 1013.9 |
| 20260504223307 | 74 | 159 | 6.0 | 13.0 | 0.00 | 0.00 | 0.00 | 48 | 1014.0 |
| 20260504222805 | 75 | 171 | 6.0 | 10.0 | 0.00 | 0.00 | 0.00 | 47 | 1013.9 |
| 20260504222305 | 74 | 165 | 6.0 | 12.0 | 0.00 | 0.00 | 0.00 | 47 | 1014.0 |
| 20260504222026 | 74 | 172 | 6.0 | 12.0 | 0.00 | 0.00 | 0.00 | 47 | 1014.0 |
| 20260504221305 | 75 | 204 | 6.0 | 11.0 | 0.00 | 0.00 | 0.00 | 46 | 1014.1 |
| 20260504220805 | 75 | 141 | 5.0 | 11.0 | 0.00 | 0.00 | 0.00 | 46 | 1014.2 |
| 20260504220305 | 75 | 180 | 5.0 | 11.0 | 0.00 | 0.00 | 0.00 | 46 | 1014.2 |
| 20260504215805 | 74 | 173 | 6.0 | 11.0 | 0.00 | 0.00 | 0.00 | 46 | 1014.1 |
| 20260504215305 | 74 | 201 | 6.0 | 11.0 | 0.00 | 0.00 | 0.00 | 47 | 1014.1 |
| 20260504214805 | 74 | 157 | 6.0 | 11.0 | 0.00 | 0.00 | 0.00 | 46 | 1014.1 |
| 20260504214306 | 74 | 200 | 6.0 | 12.0 | 0.00 | 0.00 | 0.00 | 47 | 1014.2 |
| 20260504213805 | 74 | 355 | 8.0 | 12.0 | 0.00 | 0.00 | 0.00 | 47 | 1014.1 |
| 20260504213303 | 74 | 199 | 7.0 | 12.0 | 0.00 | 0.00 | 0.00 | 46 | 1014.2 |
| 20260504212804 | 75 | 186 | 6.0 | 12.0 | 0.00 | 0.00 | 0.00 | 46 | 1014.2 |
| 20260504212304 | 75 | 236 | 6.0 | 12.0 | 0.00 | 0.00 | 0.00 | 44 | 1014.2 |
| 20260504212024 | 75 | 191 | 6.0 | 12.0 | 0.00 | 0.00 | 0.00 | 45 | 1014.5 |
| 20260504211303 | 75 | 171 | 5.0 | 12.0 | 0.00 | 0.00 | 0.00 | 43 | 1014.4 |
| 20260504210802 | 76 | 182 | 6.0 | 12.0 | 0.00 | 0.00 | 0.00 | 43 | 1014.2 |
| 20260504210303 | 75 | 303 | 6.0 | 10.0 | 0.00 | 0.00 | 0.00 | 42 | 1014.2 |
| 20260504205803 | 75 | 193 | 6.0 | 11.0 | 0.00 | 0.00 | 0.00 | 41 | 1014.2 |
| 20260504205304 | 75 | 118 | 6.0 | 12.0 | 0.00 | 0.00 | 0.00 | 43 | 1014.3 |
| 20260504204803 | 75 | 157 | 6.0 | 12.0 | 0.00 | 0.00 | 0.00 | 41 | 1014.5 |
| 20260504204522 | 75 | 180 | 6.0 | 13.0 | 0.00 | 0.00 | 0.00 | 41 | 1014.6 |
| 20260504204022 | 75 | 161 | 6.0 | 13.0 | 0.00 | 0.00 | 0.00 | 40 | 1014.6 |
| 20260504203304 | 75 | 172 | 6.0 | 13.0 | 0.00 | 0.00 | 0.00 | 42 | 1014.7 |
| 20260504202803 | 75 | 195 | 6.0 | 12.0 | 0.00 | 0.00 | 0.00 | 42 | 1014.8 |
| 20260504202304 | 76 | 160 | 5.0 | 13.0 | 0.00 | 0.00 | 0.00 | 42 | 1014.7 |
| 20260504201804 | 76 | 191 | 6.0 | 13.0 | 0.00 | 0.00 | 0.00 | 41 | 1014.9 |
| 20260504201303 | 76 | 184 | 6.0 | 11.0 | 0.00 | 0.00 | 0.00 | 40 | 1015.1 |
| 20260504200803 | 76 | 206 | 6.0 | 10.0 | 0.00 | 0.00 | 0.00 | 41 | 1015.1 |
| 20260504200304 | 76 | 166 | 6.0 | 12.0 | 0.00 | 0.00 | 0.00 | 42 | 1015.2 |
| 20260504195803 | 76 | 146 | 6.0 | 12.0 | 0.00 | 0.00 | 0.00 | 41 | 1015.3 |
| 20260504195304 | 75 | 159 | 6.0 | 12.0 | 0.00 | 0.00 | 0.00 | 41 | 1015.4 |
| 20260504194804 | 76 | 178 | 7.0 | 13.0 | 0.00 | 0.00 | 0.00 | 39 | 1015.5 |
| 20260504194453 | 76 | 182 | 6.0 | 13.0 | 0.00 | 0.00 | 0.00 | 40 | 1015.5 |
| 20260504193303 | 76 | 168 | 6.0 | 12.0 | 0.00 | 0.00 | 0.00 | 39 | 1015.6 |
| 20260504192803 | 75 | 54 | 7.0 | 13.0 | 0.00 | 0.00 | 0.00 | 41 | 1015.7 |
| 20260504192304 | 75 | 197 | 7.0 | 13.0 | 0.00 | 0.00 | 0.00 | 41 | 1015.8 |
| 20260504192020 | 76 | 193 | 5.0 | 13.0 | 0.00 | 0.00 | 0.00 | 42 | 1015.8 |
| 20260504191304 | 76 | 215 | 4.0 | 12.0 | 0.00 | 0.00 | 0.00 | 41 | 1015.7 |
| 20260504190803 | 76 | 185 | 6.0 | 12.0 | 0.00 | 0.00 | 0.00 | 41 | 1015.7 |
| 20260504190303 | 76 | 169 | 6.0 | 12.0 | 0.00 | 0.00 | 0.00 | 42 | 1015.9 |
| 20260504190024 | 76 | 164 | 5.0 | 12.0 | 0.00 | 0.00 | 0.00 | 43 | 1016.0 |
| 20260504185720 | 76 | 211 | 4.0 | 11.0 | 0.00 | 0.00 | 0.00 | 42 | 1016.0 |
| 20260504184302 | 76 | 66 | 6.0 | 13.0 | 0.00 | 0.00 | 0.00 | 44 | 1016.1 |
| 20260504183758 | 76 | 175 | 7.0 | 13.0 | 0.00 | 0.00 | 0.00 | 42 | 1016.2 |
| 20260504183258 | 76 | 185 | 5.0 | 13.0 | 0.00 | 0.00 | 0.00 | 43 | 1016.3 |
| 20260504182759 | 77 | 227 | 4.0 | 9.0 | 0.00 | 0.00 | 0.00 | 42 | 1016.3 |
| 20260504182259 | 76 | 229 | 5.0 | 13.0 | 0.00 | 0.00 | 0.00 | 42 | 1016.4 |
| 20260504181759 | 76 | 284 | 5.0 | 13.0 | 0.00 | 0.00 | 0.00 | 43 | 1016.3 |
| 20260504181259 | 76 | 168 | 5.0 | 10.0 | 0.00 | 0.00 | 0.00 | 44 | 1016.3 |
| 20260504180759 | 76 | 204 | 5.0 | 10.0 | 0.00 | 0.00 | 0.00 | 44 | 1016.3 |
| 20260504180259 | 76 | 297 | 4.0 | 10.0 | 0.00 | 0.00 | 0.00 | 43 | 1016.3 |
| 20260504175759 | 75 | 209 | 5.0 | 13.0 | 0.00 | 0.00 | 0.00 | 43 | 1016.4 |
| 20260504175300 | 75 | 192 | 5.0 | 13.0 | 0.00 | 0.00 | 0.00 | 43 | 1016.4 |
| 20260504174759 | 75 | 199 | 4.0 | 10.0 | 0.00 | 0.00 | 0.00 | 44 | 1016.4 |
| 20260504174259 | 75 | 194 | 6.0 | 14.0 | 0.00 | 0.00 | 0.00 | 45 | 1016.6 |
| 20260504173800 | 75 | 161 | 6.0 | 14.0 | 0.00 | 0.00 | 0.00 | 46 | 1016.5 |
| 20260504173300 | 75 | 231 | 7.0 | 12.0 | 0.00 | 0.00 | 0.00 | 44 | 1016.5 |
| 20260504172759 | 75 | 166 | 8.0 | 13.0 | 0.00 | 0.00 | 0.00 | 45 | 1016.4 |
| 20260504172257 | 75 | 155 | 6.0 | 13.0 | 0.00 | 0.00 | 0.00 | 46 | 1016.4 |
| 20260504171757 | 75 | 262 | 5.0 | 13.0 | 0.00 | 0.00 | 0.00 | 45 | 1016.3 |
| 20260504171257 | 75 | 202 | 5.0 | 13.0 | 0.00 | 0.00 | 0.00 | 45 | 1016.4 |
| 20260504170757 | 76 | 191 | 4.0 | 13.0 | 0.00 | 0.00 | 0.00 | 45 | 1016.5 |
| 20260504170257 | 75 | 148 | 4.0 | 10.0 | 0.00 | 0.00 | 0.00 | 45 | 1016.4 |
| 20260504160255 | 75 | 147 | 4.0 | 10.0 | 0.00 | 0.00 | 0.00 | 47 | 1017.0 |
| 20260504151019 | 73 | 139 | 4.0 | 9.0 | 0.00 | 0.00 | 0.00 | 49 | 1017.2 |
| 20260504150252 | 73 | 293 | 4.0 | 9.0 | 0.00 | 0.00 | 0.00 | 52 | 1017.1 |
| 20260504141251 | 71 | 217 | 2.0 | 5.0 | 0.00 | 0.00 | 0.00 | 55 | 1017.2 |
| 20260504141011 | 71 | 253 | 2.0 | 5.0 | 0.00 | 0.00 | 0.00 | 54 | 1017.3 |
| 20260504140251 | 70 | 270 | 2.0 | 5.0 | 0.00 | 0.00 | 0.00 | 55 | 1017.3 |
| 20260504130748 | 70 | 225 | 1.0 | 2.0 | 0.00 | 0.00 | 0.00 | 62 | 1017.4 |
| 20260504130511 | 70 | 0 | 0.0 | 2.0 | 0.00 | 0.00 | 0.00 | 62 | 1017.4 |
| 20260504110502 | 56 | 357 | 0.0 | 1.0 | 0.00 | 0.00 | 0.00 | 86 | 1016.5 |
| 20260504100232 | 58 | 0 | 0.0 | 2.0 | 0.00 | 0.00 | 0.00 | 82 | 1016.7 |
| 20260504081721 | 59 | 176 | 1.0 | 3.0 | 0.00 | 0.00 | 0.00 | 80 | 1016.5 |
| 20260504081222 | 59 | 66 | 1.0 | 3.0 | 0.00 | 0.00 | 0.00 | 80 | 1016.5 |
| 20260504080722 | 59 | 0 | 0.0 | 1.0 | 0.00 | 0.00 | 0.00 | 80 | 1016.6 |
| 20260504080222 | 59 | 121 | 0.0 | 1.0 | 0.00 | 0.00 | 0.00 | 79 | 1016.7 |
| 20260504070220 | 60 | 0 | 0.0 | 2.0 | 0.00 | 0.00 | 0.00 | 76 | 1017.2 |
| 20260504050703 | 63 | 0 | 1.0 | 2.0 | 0.00 | 0.00 | 0.00 | 69 | 1018.2 |
| 20260504050203 | 64 | 296 | 1.0 | 2.0 | 0.00 | 0.00 | 0.00 | 68 | 1018.3 |
| 20260504045703 | 64 | 0 | 1.0 | 3.0 | 0.00 | 0.00 | 0.00 | 67 | 1018.3 |
| 20260504045203 | 64 | 156 | 1.0 | 3.0 | 0.00 | 0.00 | 0.00 | 66 | 1018.3 |
| 20260504044703 | 64 | 153 | 1.0 | 3.0 | 0.00 | 0.00 | 0.00 | 66 | 1018.3 |
| 20260504044646 | 64 | 155 | 2.0 | 4.0 | 0.00 | 0.00 | 0.00 | 65 | 1018.3 |
| 20260504043704 | 64 | 159 | 1.0 | 4.0 | 0.00 | 0.00 | 0.00 | 65 | 1018.3 |
| 20260504043203 | 64 | 205 | 1.0 | 4.0 | 0.00 | 0.00 | 0.00 | 66 | 1018.4 |
| 20260504042704 | 64 | 0 | 1.0 | 3.0 | 0.00 | 0.00 | 0.00 | 65 | 1018.5 |
| 20260504042203 | 65 | 288 | 1.0 | 4.0 | 0.00 | 0.00 | 0.00 | 65 | 1018.4 |
| 20260504041705 | 65 | 145 | 2.0 | 6.0 | 0.00 | 0.00 | 0.00 | 65 | 1018.5 |
| 20260504041203 | 65 | 298 | 2.0 | 6.0 | 0.00 | 0.00 | 0.00 | 65 | 1018.5 |
| 20260504040704 | 65 | 292 | 2.0 | 8.0 | 0.00 | 0.00 | 0.00 | 64 | 1018.5 |
| 20260504040431 | 65 | 263 | 2.0 | 8.0 | 0.00 | 0.00 | 0.00 | 64 | 1018.4 |
| 20260504035704 | 65 | 262 | 2.0 | 5.0 | 0.00 | 0.00 | 0.00 | 64 | 1018.4 |
| 20260504035421 | 65 | 358 | 2.0 | 5.0 | 0.00 | 0.00 | 0.00 | 65 | 1018.4 |
| 20260504034702 | 65 | 254 | 1.0 | 4.0 | 0.00 | 0.00 | 0.00 | 65 | 1018.4 |
| 20260504034203 | 65 | 120 | 1.0 | 2.0 | 0.00 | 0.00 | 0.00 | 65 | 1018.4 |
| 20260504033703 | 66 | 236 | 1.0 | 5.0 | 0.00 | 0.00 | 0.00 | 64 | 1018.4 |
| 20260504033203 | 66 | 239 | 2.0 | 5.0 | 0.00 | 0.00 | 0.00 | 63 | 1018.4 |
| 20260504032923 | 66 | 110 | 2.0 | 4.0 | 0.00 | 0.00 | 0.00 | 63 | 1018.4 |
| 20260504032420 | 66 | 179 | 1.0 | 4.0 | 0.00 | 0.00 | 0.00 | 63 | 1018.4 |
| 20260504031702 | 66 | 257 | 2.0 | 4.0 | 0.00 | 0.00 | 0.00 | 62 | 1018.4 |
| 20260504031203 | 66 | 140 | 2.0 | 4.0 | 0.00 | 0.00 | 0.00 | 63 | 1018.4 |
| 20260504030703 | 67 | 183 | 2.0 | 4.0 | 0.00 | 0.00 | 0.00 | 62 | 1018.4 |
| 20260504030203 | 67 | 225 | 2.0 | 5.0 | 0.00 | 0.00 | 0.00 | 60 | 1018.4 |
| 20260504025703 | 67 | 240 | 3.0 | 5.0 | 0.00 | 0.00 | 0.00 | 59 | 1018.4 |
| 20260504025426 | 67 | 180 | 2.0 | 4.0 | 0.00 | 0.00 | 0.00 | 58 | 1018.3 |
| 20260504024704 | 67 | 0 | 2.0 | 4.0 | 0.00 | 0.00 | 0.00 | 58 | 1018.2 |
| 20260504024204 | 67 | 228 | 2.0 | 3.0 | 0.00 | 0.00 | 0.00 | 56 | 1018.1 |
| 20260504023703 | 68 | 138 | 2.0 | 3.0 | 0.00 | 0.00 | 0.00 | 54 | 1018.0 |
| 20260504023203 | 68 | 141 | 1.0 | 3.0 | 0.00 | 0.00 | 0.00 | 54 | 1018.0 |
| 20260504022704 | 68 | 169 | 1.0 | 3.0 | 0.00 | 0.00 | 0.00 | 53 | 1018.0 |
| 20260504022203 | 68 | 211 | 0.0 | 2.0 | 0.00 | 0.00 | 0.00 | 53 | 1018.0 |
| 20260504021703 | 69 | 294 | 1.0 | 2.0 | 0.00 | 0.00 | 0.00 | 51 | 1018.0 |
| 20260504021203 | 69 | 192 | 1.0 | 2.0 | 0.00 | 0.00 | 0.00 | 50 | 1017.9 |
| 20260504020703 | 69 | 217 | 1.0 | 3.0 | 0.00 | 0.00 | 0.00 | 51 | 1017.8 |
| 20260504020203 | 69 | 232 | 2.0 | 5.0 | 0.00 | 0.00 | 0.00 | 50 | 1017.8 |
| 20260504015703 | 69 | 183 | 2.0 | 5.0 | 0.00 | 0.00 | 0.00 | 52 | 1017.7 |
| 20260504015429 | 69 | 217 | 2.0 | 3.0 | 0.00 | 0.00 | 0.00 | 54 | 1017.7 |
| 20260504014704 | 69 | 175 | 1.0 | 3.0 | 0.00 | 0.00 | 0.00 | 53 | 1017.6 |
| 20260504014204 | 69 | 0 | 0.0 | 2.0 | 0.00 | 0.00 | 0.00 | 53 | 1017.6 |
| 20260504013703 | 69 | 234 | 0.0 | 2.0 | 0.00 | 0.00 | 0.00 | 51 | 1017.6 |
| 20260504013203 | 69 | 216 | 1.0 | 2.0 | 0.00 | 0.00 | 0.00 | 50 | 1017.5 |
| 20260504012703 | 70 | 230 | 1.0 | 3.0 | 0.00 | 0.00 | 0.00 | 50 | 1017.5 |
| 20260504012648 | 70 | 182 | 1.0 | 3.0 | 0.00 | 0.00 | 0.00 | 49 | 1017.5 |
| 20260504012147 | 70 | 193 | 1.0 | 2.0 | 0.00 | 0.00 | 0.00 | 48 | 1017.4 |